CZ-2C DEB

Satellite information

Favourite Embed

Satellite Type and Status

DEBRISIN ORBIT

Key statistics

Satellite CZ-2C DEB at a glance.

Uptime

3848

Days in orbit

Revolutions

≈ 14.7

Per day

Orbit

SSO

Sun Synchronous Orbit

Inclination

98.5

Latest

Satellite identification and parameters

Extended collection of information and parameters for CZ-2C DEB.

Object identification

Identified? True

Debris? True

Object name: CZ-2C DEB

International designator: 2014-066D

Object number (NORAD): 40289

Object ID (CCSDS): 40289

Country: PEOPLES REPUBLIC OF CHINA (PRC)

Current information (Y/N): Y

RCS size: SMALL

Orbital parameters

Period: 97.829 minutes

Inclination: 98.5105 deg

SMA: 7032.981 km

Apoapsis: 708.651 km

Periapsis: 601.04 km

RAAN: 22.4885 deg

Eccentricy: 0.0076504

Argument of periapsis: 350.1711 deg

Mean anomaly: 9.7993 deg

Mean motion: 14.71951956 rev/day

Mean motion (dot): 0.00008588 rev/day2

B* drag term: 0.0013159 1/REarth

Two-line elements (TLE)

Creation date: May 10, 2025, 2:32 a.m.

Reference frame: TEME

Reference center: EARTH

Epoch: May 9, 2025, 4:48 p.m. UTC

TLE line 0: 0 CZ-2C DEB

TLE line 1: 1 40289U 14066D 25129.70050308 .00008588 00000-0 13159-2 0 9992

TLE line 2: 2 40289 98.5105 22.4885 0076504 350.1711 9.7993 14.71951956558768

Live tracking on map

Real-time ground track for satellite CZ-2C DEB.

In-orbit conjunctions

A list of the most updated potential collisions computed for object CZ-2C DEB.

Target Orbit TCA Probability of collision Miss distance Type
BREEZE-KM R/B SSO 2024-10-06 20:35:31 0.0001407981 941.0 (m) ROCKET BODY

Associated space launch

CZ-2C DEB was lifted into orbit during the mission ‘Long March 2C | Shijian 11-08’, on board a Long March 2 space rocket.

The launch took place on Oct. 27, 2014, 6:59 a.m. from Launch Area 4 (SLS-2 / 603).

For more information about the launch, click the button.

Launch to space Long March 2C | Shijian 11-08
Long March 2C | Shijian 11-08

Agency: N/A

Status: Launch Successful

Launch date: Oct. 27, 2014, 6:59 a.m. UTC

Rocket: Long March 2

Launch pad: Launch Area 4 (SLS-2 / 603)

Location: Jiuquan Satellite Launch Center, People's Republic of China

...

Latest news about this satellite

There are no fresh news available about this satellite. Check back as we update our databases every day.


Newsletter sign-up

Weekly statistics, charts and insights to help you stay on top of the space industry.